Temperature
9 9 9 9 9 10 10 10 10 10 10 10 10 11 11 11 11 11 11 11 11 11 11 11 11 11 11 11 11 11 11 11 11 10 10 10 10 10 10 9 9 9 9
8 8 9 9 9 9 10 10 10 10 10 10 10 10 10 10 11 11 11 11 11 11 11 11 11 11 11 11 11 11 11 10 10 10 9 8 8 9 9 9 9 9 9
7 8 8 8 9 9 9 9 9 9 9 10 10 10 10 10 10 10 10 11 11 10 10 10 10 10 10 10 10 10 10 10 10 9 9 8 9 8 8 9 8 8 8
7 7 7 8 8 9 9 9 9 9 9 9 9 10 10 10 10 10 10 10 10 10 10 10 10 10 10 10 10 10 10 9 9 9 9 9 8 7 7 8 8 8 8
7 6 7 8 8 8 8 8 9 9 8 9 9 9 9 9 9 9 10 10 10 10 10 10 10 9 10 10 10 10 9 9 9 9 8 8 8 7 7 7 7 7 7
6 6 7 7 7 7 8 8 8 8 8 8 8 8 9 9 9 9 9 9 9 9 9 9 9 9 9 9 9 9 9 9 9 8 8 8 7 7 7 6 6 6 7
6 6 6 7 7 7 7 7 7 8 8 8 8 8 8 9 9 9 9 9 9 9 9 9 9 9 9 9 9 9 8 8 8 8 8 7 7 7 7 6 5 5 6
6 6 6 6 6 6 7 7 7 7 7 7 8 8 8 8 8 8 8 8 9 9 9 9 9 8 8 8 8 8 8 8 8 8 7 7 7 7 6 6 5 5 5
5 5 5 6 6 6 6 6 7 7 7 7 7 7 7 8 8 8 8 8 8 8 8 8 8 8 8 8 8 8 8 7 7 7 7 7 6 6 6 6 5 5 4
4 5 5 5 5 6 6 6 6 6 7 7 7 7 7 7 7 7 7 8 8 8 8 8 8 8 8 7 7 7 7 7 7 7 6 6 6 6 6 5 5 5 4
4 4 4 4 5 5 5 5 6 6 6 6 6 6 6 7 7 7 7 7 7 7 7 7 7 7 7 7 7 7 7 7 7 6 6 6 6 5 5 5 5 4 4
3 3 4 4 4 4 5 5 5 5 5 5 5 6 6 6 6 6 6 7 7 7 7 7 7 7 7 7 7 6 6 6 6 6 6 5 5 5 5 5 4 4 4
3 3 3 3 3 4 4 4 4 5 5 5 5 5 5 6 6 6 6 6 6 6 6 6 6 6 6 6 6 6 6 6 6 6 5 5 5 5 5 4 4 4 4
2 2 2 3 3 3 3 3 4 4 4 4 4 5 5 5 5 5 5 6 6 6 6 6 6 6 6 6 6 6 6 5 5 5 5 5 5 5 4 4 4 4 3
1 2 2 2 2 2 3 3 3 3 3 4 4 4 4 4 4 4 5 5 5 5 5 5 5 5 5 5 5 5 5 5 5 5 5 4 4 4 4 4 3 3 3
1 1 1 1 1 2 2 2 3 3 3 3 3 3 3 4 4 4 4 4 4 4 4 5 5 5 5 5 5 5 5 5 4 4 4 4 4 4 3 3 3 3 3
0 0 1 1 1 1 2 2 2 2 2 2 3 3 3 3 3 3 4 4 4 4 4 4 4 4 5 5 4 4 4 4 4 4 4 4 3 3 3 3 3 3 3
-0 -0 0 0 1 1 1 1 2 2 2 2 2 2 2 2 3 3 3 3 3 3 4 4 4 4 4 4 4 4 4 4 4 4 3 3 3 3 3 3 2 2 2
-1 -0 -0 0 1 1 1 1 1 1 2 2 2 2 2 2 2 2 3 3 3 3 3 3 3 3 3 3 3 3 3 3 3 3 3 3 3 2 2 2 2 2 1
-1 -1 -0 -0 0 0 0 1 1 1 1 1 1 2 2 2 2 2 2 2 2 2 3 3 3 3 3 3 3 3 3 3 3 3 3 2 2 2 2 2 1 1 1
-1 -1 -1 -1 -0 -0 -0 0 0 0 1 1 1 1 1 2 2 2 2 2 2 2 2 2 2 2 2 2 2 2 2 2 2 2 2 2 2 2 2 1 1 1 1
-2 -2 -1 -1 -1 -1 -1 -0 -0 -0 0 0 1 1 1 1 1 1 1 1 1 1 1 1 2 2 2 2 2 2 2 2 2 2 2 2 2 1 1 1 1 1 0
-2 -2 -2 -1 -1 -1 -1 -1 -1 -1 -0 -0 0 0 0 1 1 1 1 1 1 1 1 1 1 1 2 2 2 2 1 1 1 1 1 1 1 1 1 1 1 0 -0
-3 -2 -2 -2 -2 -2 -2 -2 -1 -1 -1 -1 -0 -0 -0 -0 0 0 0 0 0 1 0 1 1 1 1 1 1 1 1 1 1 1 1 1 1 0 0 0 0 -0 -0
-3 -3 -3 -3 -2 -2 -2 -2 -2 -2 -1 -1 -1 -1 -1 -1 -0 -0 -0 -0 0 0 0 0 0 0 0 1 0 0 0 1 0 0 0 0 0 -0 -0 -0 -0 -1 -1
-3 -3 -3 -3 -3 -3 -2 -2 -2 -2 -2 -2 -2 -1 -1 -1 -1 -1 -1 -1 -1 -0 -0 -0 -1 -0 -0 -0 -0 0 0 0 0 -0 -0 -0 -0 -1 -1 -1 -1 -1 -1
Wind_Speed
5 4 3 3 3 4 5 5 5 4 4 4 5 4 4 4 4 4 6 7 7 7 6 5 5 5 4 5 5 4 4 3 3 2 1 1 1 1 1 1 0 0 1
4 3 3 3 3 4 4 4 5 5 5 4 5 4 4 3 3 3 5 6 7 7 6 6 5 5 4 5 5 5 3 3 2 2 2 1 2 1 1 1 1 0 1
4 4 3 3 4 3 3 4 5 5 5 4 3 4 3 2 3 4 4 5 7 7 6 6 5 5 5 5 5 5 5 4 3 2 1 2 1 1 1 1 1 1 1
4 3 3 3 3 3 3 4 5 5 4 5 5 7 5 5 4 4 4 5 7 7 7 6 6 5 5 5 5 5 4 5 4 3 1 1 0 1 1 2 2 2 2
4 3 3 3 3 2 3 3 4 4 4 4 5 6 6 4 4 4 5 5 5 6 7 7 6 6 5 6 6 5 5 4 4 3 2 2 1 2 2 3 2 2 2
4 2 2 1 1 1 2 2 3 3 3 4 5 6 7 6 5 6 6 5 4 4 6 6 6 6 5 6 6 6 6 5 4 4 3 3 3 3 3 3 3 3 3
4 2 2 2 2 2 2 2 3 3 3 4 5 6 6 7 7 7 6 6 4 4 6 6 6 5 5 6 6 6 6 5 5 5 4 3 3 2 3 3 3 3 3
3 3 3 3 2 2 2 3 3 3 3 4 5 5 5 5 5 6 6 6 5 4 5 6 6 6 6 6 6 5 5 5 5 5 5 3 3 3 3 3 2 3 3
2 2 2 2 2 2 3 3 3 3 3 4 4 4 5 5 5 5 5 5 4 4 5 5 6 6 6 6 6 5 5 5 4 4 4 3 3 3 3 3 3 3 3
2 2 2 1 1 1 1 2 2 3 3 3 3 3 4 4 4 5 5 5 5 5 5 5 5 6 6 6 6 5 5 5 4 3 4 3 3 3 2 3 3 4 4
3 1 1 1 1 0 0 0 1 1 1 2 3 3 3 3 4 4 5 5 5 5 6 5 5 6 7 7 6 6 6 6 5 5 5 4 3 3 2 2 2 3 3
3 2 0 0 1 1 1 0 0 1 1 2 2 2 2 3 3 4 4 5 5 5 5 5 5 6 6 6 6 6 7 7 6 6 5 5 4 4 3 2 3 3 3
3 2 2 1 1 1 1 1 0 1 1 1 1 2 2 2 3 3 3 4 4 5 5 5 5 5 5 6 6 6 6 6 6 6 6 5 5 4 3 3 3 2 3
4 3 2 2 1 2 2 1 1 1 0 1 1 1 2 2 2 2 3 3 4 4 4 4 4 5 5 6 6 5 6 6 5 5 5 5 5 5 4 3 3 3 3
4 4 3 3 2 2 2 2 2 1 1 1 1 1 1 1 1 1 2 3 3 4 4 4 4 4 4 5 5 5 6 6 5 5 4 4 4 4 4 4 3 3 3
5 4 4 3 3 3 2 2 2 1 1 1 1 0 0 1 1 1 2 2 3 3 4 4 4 4 3 4 5 5 5 5 5 5 4 4 4 4 5 5 4 4 4
6 5 4 4 3 3 3 2 2 2 1 1 0 0 0 1 1 1 2 3 3 3 3 3 3 3 3 4 5 5 4 5 5 5 4 3 3 4 3 3 2 3 4
6 5 4 4 4 3 3 3 2 1 1 0 0 0 0 1 1 2 2 2 2 3 3 3 3 3 3 4 5 4 4 4 4 4 5 4 4 4 3 3 3 3 3
6 5 4 4 3 3 3 2 2 1 1 1 1 1 1 1 1 2 2 2 2 3 3 3 3 3 3 4 4 4 3 3 3 3 4 4 4 4 3 3 3 3 3
4 4 4 3 3 3 3 2 2 1 1 2 2 2 1 1 2 2 2 1 2 2 2 2 3 3 3 3 4 4 3 3 2 2 3 4 4 4 4 4 3 3 3
4 4 3 3 3 3 2 2 2 2 3 2 2 2 1 1 1 1 1 1 1 2 2 2 2 2 2 3 4 4 3 3 3 2 2 2 4 4 4 4 3 3 3
4 4 3 3 3 3 2 2 3 3 3 2 2 2 2 1 0 0 0 1 1 2 2 2 1 1 1 2 3 5 4 3 3 3 2 2 3 3 3 2 1 1 2
4 3 3 3 3 3 3 3 3 3 3 3 2 2 2 1 0 0 1 1 1 1 2 2 1 1 0 1 2 4 5 4 2 2 2 2 3 2 2 1 1 1 1
3 3 3 3 3 4 3 3 3 3 2 2 2 2 1 1 1 0 0 1 1 1 1 2 2 1 1 1 1 2 2 3 2 1 2 3 2 1 1 1 1 1 1
3 3 2 3 4 4 3 3 3 2 2 2 2 2 2 1 1 1 1 1 1 2 2 2 2 2 2 2 1 2 2 2 2 2 2 2 2 1 0 0 1 1 1
3 3 3 3 3 3 3 3 3 2 1 2 2 2 1 1 1 1 1 2 1 1 2 2 2 2 2 2 2 2 2 2 4 3 3 2 2 2 1 1 1 2 2
Wind_Direction
238 221 214 200 174 172 169 166 167 171 165 169 170 173 178 170 170 172 175 177 173 171 168 167 172 177 175 171 164 153 146 138 141 151 151 183 211 221 191 189 183 82 38
233 225 210 194 186 177 164 172 174 182 182 183 184 186 177 178 171 167 172 178 177 174 172 170 171 173 169 168 167 165 160 151 169 184 180 197 197 186 198 201 205 251 329
231 225 208 198 194 187 178 189 186 188 187 173 169 154 149 157 167 175 178 181 180 177 176 177 174 173 175 175 178 179 177 170 170 186 212 218 227 253 199 211 228 251 284
223 217 207 200 207 201 187 195 187 189 187 173 179 176 185 191 196 188 186 180 182 180 178 180 181 183 184 181 181 185 181 177 176 174 206 270 278 244 239 205 219 264 278
215 220 211 193 201 194 186 197 184 185 188 184 189 194 194 198 190 180 181 180 179 180 179 181 184 187 186 184 181 181 183 184 188 187 187 194 204 244 250 251 255 268 272
219 222 212 159 165 163 174 186 185 186 192 195 198 205 197 191 185 188 184 183 179 180 182 184 188 191 189 185 185 187 186 186 190 193 199 201 205 216 236 251 258 274 284
217 217 203 184 181 169 171 185 187 189 198 204 208 214 207 198 195 193 191 188 185 191 189 185 189 192 192 189 185 186 191 192 193 196 203 210 218 219 236 236 256 279 289
222 217 209 197 193 184 180 182 190 193 197 208 220 222 213 206 205 201 196 196 196 198 194 188 189 189 186 187 185 184 188 192 195 197 198 202 208 208 214 226 244 272 280
252 235 211 199 194 191 193 193 191 195 203 211 220 224 216 215 210 202 201 197 194 190 191 189 187 184 182 186 185 184 185 186 192 193 194 198 200 205 216 220 224 244 267
306 258 220 208 208 217 208 193 192 199 204 211 217 225 223 221 214 199 197 197 191 185 186 189 187 183 183 184 186 182 182 183 186 187 191 191 196 200 212 218 233 243 252
310 284 245 220 207 218 245 192 190 206 217 220 220 222 220 215 207 201 199 195 189 185 186 185 187 188 187 185 183 184 182 185 185 186 191 196 198 200 207 216 225 239 246
328 328 347 82 61 27 4 306 201 207 230 233 222 218 211 202 201 201 197 190 186 186 186 184 188 192 190 187 186 186 188 188 189 191 193 196 196 205 207 216 233 248 259
356 357 14 30 13 357 341 319 267 218 235 229 219 209 200 197 197 197 189 184 182 180 178 182 190 193 191 189 190 191 192 194 196 195 196 197 197 206 212 223 237 254 265
3 1 356 350 343 339 332 324 311 310 253 220 212 211 209 213 201 190 183 182 181 179 180 184 193 196 193 193 191 194 196 198 200 200 200 202 204 209 213 224 233 246 258
353 353 347 340 335 336 334 328 331 333 294 241 229 233 219 224 199 177 176 177 181 182 182 187 195 196 196 195 192 196 199 199 199 201 205 209 206 213 223 228 231 238 247
336 339 339 338 331 327 320 321 325 318 288 271 283 274 194 205 197 177 168 166 174 179 180 188 193 197 198 184 191 200 201 200 201 203 203 198 196 205 225 235 247 253 253
329 329 327 322 314 316 319 314 308 306 277 265 266 162 203 223 220 185 168 172 172 172 179 185 190 198 193 182 194 200 204 201 203 202 199 197 198 206 211 223 245 271 281
322 322 325 324 324 326 331 328 318 309 296 289 313 27 243 246 230 199 192 183 175 175 177 187 197 200 194 181 188 190 203 205 208 208 203 197 199 204 210 227 247 270 283
314 315 321 324 330 337 334 326 321 332 331 313 305 299 270 246 235 216 218 203 185 181 179 184 194 200 198 183 183 185 200 203 211 211 207 201 204 199 205 220 237 265 291
327 325 331 337 343 342 336 335 336 339 324 311 297 294 279 248 236 230 224 226 198 188 179 182 195 203 205 187 185 189 193 202 207 208 206 204 208 199 208 222 227 245 276
335 336 338 343 343 342 339 345 352 343 331 326 315 311 300 277 253 242 225 203 180 173 179 184 194 201 200 187 193 198 200 204 202 208 213 210 200 206 220 239 240 257 280
337 341 342 343 345 345 343 343 343 337 334 336 336 334 330 326 292 239 230 176 163 169 179 183 186 201 189 197 204 207 205 203 204 213 213 207 198 214 223 234 249 266 290
327 333 335 334 342 346 344 336 330 335 341 349 350 344 341 342 334 208 204 181 168 178 194 195 199 213 233 215 211 209 201 196 204 205 192 192 193 204 203 206 199 225 263
317 322 326 329 335 341 340 335 332 335 344 346 347 347 345 348 356 318 231 212 208 203 211 219 217 224 231 226 207 205 192 182 175 161 156 156 160 171 183 197 194 255 268
307 310 311 317 323 331 336 338 336 343 349 346 345 344 345 342 354 356 329 255 249 249 242 238 227 221 228 240 254 220 208 203 187 164 156 154 161 171 186 262 295 300 293
303 305 308 311 315 323 330 333 334 334 339 341 339 337 339 341 343 0 13 19 334 318 298 283 259 251 256 236 228 216 205 187 165 161 171 181 193 203 215 238 280 294 287
Height
1476 1477 1478 1479 1480 1482 1483 1484 1486 1487 1489 1491 1493 1496 1498 1500 1502 1503 1505 1507 1509 1510 1512 1513 1514 1516 1517 1518 1520 1521 1521 1522 1523 1524 1525 1525 1525 1525 1525 1525 1525 1524 1524
1473 1473 1475 1476 1478 1479 1479 1481 1483 1484 1486 1489 1491 1493 1495 1497 1499 1500 1502 1504 1506 1508 1509 1511 1512 1513 1515 1516 1517 1519 1519 1520 1521 1522 1523 1524 1525 1523 1523 1523 1523 1523 1522
1470 1471 1472 1473 1474 1476 1477 1479 1480 1481 1483 1486 1488 1490 1492 1494 1496 1497 1499 1501 1503 1505 1507 1508 1510 1510 1512 1513 1515 1516 1517 1518 1519 1520 1521 1523 1523 1522 1521 1521 1521 1521 1520
1468 1469 1470 1470 1471 1473 1475 1477 1478 1479 1481 1483 1484 1486 1488 1490 1492 1495 1497 1499 1501 1502 1504 1506 1507 1509 1510 1511 1512 1514 1515 1516 1516 1518 1518 1520 1520 1521 1520 1520 1519 1519 1518
1466 1467 1467 1468 1469 1471 1472 1474 1475 1477 1479 1480 1482 1484 1486 1488 1490 1492 1494 1495 1497 1499 1501 1503 1504 1506 1507 1508 1510 1511 1512 1513 1514 1515 1515 1516 1517 1517 1518 1517 1517 1516 1516
1464 1465 1466 1467 1468 1469 1470 1472 1472 1474 1476 1478 1480 1482 1484 1485 1486 1488 1490 1491 1493 1495 1498 1500 1501 1502 1504 1505 1507 1508 1509 1510 1511 1512 1513 1513 1513 1514 1515 1514 1514 1513 1513
1463 1464 1464 1465 1466 1467 1468 1470 1470 1471 1474 1476 1477 1479 1481 1482 1484 1485 1487 1489 1490 1492 1494 1496 1498 1499 1501 1502 1503 1505 1506 1507 1508 1509 1510 1511 1511 1511 1512 1511 1511 1510 1509
1462 1462 1463 1464 1465 1465 1466 1467 1468 1469 1471 1473 1475 1476 1478 1479 1481 1483 1484 1486 1487 1489 1491 1493 1494 1496 1498 1499 1500 1501 1503 1504 1505 1506 1507 1507 1508 1508 1509 1509 1508 1508 1507
1461 1461 1462 1463 1463 1464 1465 1465 1466 1467 1469 1470 1472 1473 1475 1476 1478 1480 1481 1483 1484 1486 1488 1489 1491 1493 1494 1496 1497 1498 1499 1501 1502 1502 1503 1504 1505 1505 1506 1505 1506 1506 1505
1460 1460 1460 1461 1462 1462 1463 1464 1464 1465 1466 1468 1469 1470 1472 1473 1475 1477 1478 1480 1481 1482 1484 1486 1488 1489 1491 1493 1493 1494 1496 1497 1498 1499 1500 1501 1502 1502 1502 1502 1503 1502 1502
1458 1458 1458 1459 1460 1461 1461 1462 1462 1463 1464 1465 1467 1468 1469 1470 1472 1473 1475 1476 1478 1479 1481 1483 1484 1486 1488 1489 1490 1491 1493 1494 1495 1496 1497 1498 1499 1499 1499 1499 1499 1499 1499
1458 1457 1458 1458 1459 1459 1460 1460 1460 1461 1462 1463 1464 1465 1467 1468 1469 1470 1472 1473 1475 1477 1478 1480 1482 1483 1484 1486 1487 1488 1489 1491 1492 1493 1494 1495 1496 1496 1496 1496 1496 1496 1495
1458 1457 1457 1458 1458 1458 1459 1459 1459 1460 1461 1461 1462 1463 1464 1465 1466 1468 1469 1471 1472 1474 1475 1477 1479 1480 1481 1482 1484 1485 1487 1488 1489 1490 1491 1492 1492 1493 1493 1493 1493 1493 1492
1458 1458 1457 1457 1457 1457 1457 1457 1457 1458 1459 1460 1460 1461 1462 1463 1464 1465 1467 1468 1470 1471 1472 1474 1476 1477 1478 1479 1481 1482 1484 1485 1486 1487 1488 1489 1489 1489 1489 1490 1490 1489 1489
1459 1458 1457 1457 1456 1456 1456 1456 1455 1456 1457 1458 1458 1458 1460 1461 1462 1463 1464 1466 1467 1469 1470 1472 1473 1474 1475 1476 1478 1479 1481 1482 1483 1484 1485 1485 1486 1486 1486 1487 1486 1486 1485
1459 1458 1457 1456 1456 1455 1455 1455 1454 1454 1455 1455 1456 1457 1458 1458 1459 1461 1462 1463 1465 1466 1468 1469 1470 1471 1472 1474 1475 1477 1478 1479 1480 1481 1481 1482 1483 1483 1483 1484 1483 1483 1482
1459 1458 1457 1456 1455 1455 1454 1453 1453 1453 1454 1454 1454 1455 1456 1457 1458 1458 1459 1461 1462 1464 1465 1466 1467 1468 1470 1471 1472 1474 1475 1476 1477 1478 1478 1479 1479 1480 1480 1480 1480 1479 1479
1458 1457 1456 1455 1454 1454 1453 1453 1453 1453 1453 1453 1453 1454 1454 1455 1456 1457 1458 1459 1460 1461 1462 1463 1465 1466 1467 1468 1470 1471 1472 1473 1474 1475 1475 1476 1476 1477 1477 1476 1476 1475 1475
1457 1456 1455 1454 1453 1453 1452 1452 1452 1452 1452 1452 1452 1453 1453 1453 1454 1455 1456 1457 1458 1459 1460 1461 1462 1463 1465 1466 1467 1468 1469 1470 1471 1472 1472 1473 1473 1474 1474 1473 1472 1471 1471
1456 1455 1454 1453 1453 1452 1452 1451 1450 1450 1450 1451 1451 1451 1452 1452 1453 1453 1454 1454 1455 1456 1457 1459 1460 1461 1462 1463 1464 1465 1466 1466 1467 1468 1469 1470 1470 1470 1470 1470 1469 1468 1467
1456 1455 1453 1453 1452 1451 1450 1450 1449 1449 1449 1449 1450 1450 1450 1451 1452 1452 1452 1453 1453 1454 1455 1456 1458 1459 1459 1460 1462 1462 1463 1464 1465 1465 1466 1467 1467 1467 1467 1467 1466 1466 1465
1455 1454 1453 1452 1451 1450 1449 1448 1448 1448 1448 1448 1448 1448 1449 1449 1450 1450 1451 1451 1452 1452 1453 1454 1455 1456 1457 1458 1459 1460 1460 1461 1462 1463 1463 1464 1464 1464 1464 1464 1463 1463 1462
1454 1453 1452 1451 1450 1449 1449 1448 1447 1447 1447 1447 1447 1447 1447 1448 1448 1448 1449 1449 1450 1450 1451 1452 1453 1453 1454 1455 1456 1457 1458 1459 1459 1460 1460 1461 1461 1462 1461 1461 1460 1460 1459
1453 1452 1451 1450 1449 1449 1448 1447 1447 1446 1446 1446 1446 1446 1446 1446 1446 1447 1447 1447 1448 1448 1449 1450 1450 1451 1452 1453 1453 1454 1455 1456 1456 1457 1457 1458 1459 1459 1459 1458 1457 1457 1456
1452 1451 1450 1449 1448 1447 1447 1446 1446 1445 1445 1445 1445 1445 1445 1445 1445 1445 1445 1446 1446 1446 1447 1448 1448 1449 1449 1450 1451 1451 1452 1453 1453 1454 1454 1455 1455 1455 1455 1455 1455 1454 1454
1450 1449 1448 1447 1447 1446 1445 1445 1445 1445 1444 1444 1444 1444 1444 1444 1444 1443 1443 1444 1444 1445 1445 1446 1446 1446 1447 1448 1449 1449 1450 1450 1451 1451 1451 1452 1452 1453 1452 1452 1452 1452 1451